Location: �perlecques
(50.8057°N, 2.1521°E)
Time: 18:08:26
(UTC+00:00)

KKS-1 - Pass Details

Date: 03 April 2023
Orbit: 633 x 644 km, 98.2° (Epoch: 03 June)

Event Time Altitude Azimuth Distance (km) Brightness Sun altitude
Rises 23:04:37 0° 10° (N) 2,944 ? -32.7°
Reaches altitude 10° 23:06:51 10° 6° (N) 2,031 ? -32.8°
Enters shadow 23:09:07 28° 352° (N) 1,192 ? -32.8°
